STARLINK-32394, 61853

Orbit data source: Space-Track

STARLINK-32394, 61853 is a payload satellite owned by SpaceX/Seattle (US) in LEO that was launched on Thu, 07 Nov 2024 UTC via an FALCON 9 launch vehicle from the Air Force Eastern Test Range (AFETR). Payloads include a variety of satellites, spacecraft, and rockets equipped with specific instruments for various scientific and technological missions. These include communications satellites like Starlink; space stations such as the ISS; scientific satellites like the Hubble; Earth observation satellites from companies like Planet Labs, Umbra, and HawkEye 360; GPS; miniature CubeSats for education and research; and military/defense satellites.

Loading next visibility...
STARLINK-32394 details
Identifier
61853, 2024-202J
Orbit
LEO
Last TLE update1 day ago
Origin
Flag of USSpaceX/Seattle (US)
ManufacturerSpaceX/Seattle
MissionOperational spacecraft
Bus & MotorSTARLINK V2M, Unknown motor
Mass730 kg wet, ~700 kg dry
Launch date (UTC)
2024-11-07 (2 months ago)
Launch vehicle
FALCON 9
Launch site
Air Force Eastern Test Range (AFETR)
Object type
Payload
Rocket body
Debris
Shape & HBRUnknown
Radar Cross SectionLarge (>1 m²)

Expand to show TLE details & history

TLE from 1 day ago
0 STARLINK-32394
1 61853U 24202J   24360.87754340 -.00004824  00000-0 -10841-3 0  9993
2 61853  43.0030 205.1121 0002730 246.7950 113.2619 15.40658631  8114
Epoch: 2024-12-25T21:03Z
Definitive object data (Epoch: 2024-12-25T21:03:39.749Z)
Latitude-0.00004°
Longitude154.33145°
Altitude444.675 km
Speed7.647 km/s
True Right ascension13h 40m 26s
True Declination0° 00' 00"
Sunlit
Object was in daylight at TLE epoch
Visualization TLE readout
Latitude31.22423°
Longitude-171.42754°
Altitude446.66 km
Speed7.648 km/s
Apparent Right ascension13h 07m 35s
Apparent Declination-4° 22' 29"
Sunlit
Object is in daylight
Visualization observer readout
Local Sidereal Time21:33:13
Azimuth291.814° WNW
Elevation-30.187°
Doppler factor1
Orbital elements
Apogee altitude447.983 km
Perigee altitude444.257 km
Semi-major axis6,824.257 km
Eccentricity0.000273
Inclination43.003°
RAAN205.1121°
Arg. of periapsis246.795°
True anomaly113.29064°
Mean anomaly113.2619°
Eccentric anomaly113.27627°
Mean motion3.84999 °/min
BSTAR-0.00010841
Orbital period93.51 mins
Loading maneuver chart data...
Loading historical data...
Loading historical data...
Loading historical data...
Loading historical data...
Loading historical data...
Loading historical data...
Loading historical data...

STARLINK-32394 Visibility forecast

Observer location: undefined°, undefined

Span
Click to sort rows by Start time (UTC) header in descending order
Start Az.
Max El. time (UTC)
Max El. Az.
Max El.
End time (UTC)
End Az.
6 mins2024-12-26 22:25:06.473Z279.075° WNW2024-12-26 22:28:06.473Z208.169° SW35.823°2024-12-26 22:31:06.473Z134.468° SE
5 mins2024-12-27 16:51:06.473Z218.105° SW2024-12-27 16:53:06.473Z166.139° S34.254°2024-12-27 16:56:06.473Z83.376° E
5 mins2024-12-27 18:29:06.473Z273.509° WNW2024-12-27 18:31:06.473Z323.901° NNW39.951°2024-12-27 18:34:06.473Z67.8° E
5 mins2024-12-27 20:08:06.473Z301.258° NW2024-12-27 20:10:06.473Z35.109° NE37.651°2024-12-27 20:13:06.473Z86.004° E
5 mins2024-12-27 21:46:06.473Z273.981° WNW2024-12-27 21:48:06.473Z182.506° SSW39.407°2024-12-27 21:51:06.473Z125.906° SE
|